www.pogodaiklimat.ru

Погода и климат >> Архив погоды >> Россия >> Нижегородская область >> Павлово


ПОГОДА в Павлово

  • Прогноз погоды в Павлово
  • Монитор погоды в Павлово

АРХИВ ПОГОДЫ в Павлово

Время (UTC), дата Ветер
(напр.,м/с)
 
Видим.   Явления Облачность Т
(С)
Тd
(С)
f
(%)
Тe
(С)
Тes
(С)
Комфортность P
(гПа)
Po
(гПа)
Тmin
(С)
Tmax
(С)
R
(мм)
R24
(мм)
S
(см)
18 14.05 штиль 0
{3}
20 км 9/9 1000 м
[Sc Ac trans Ci fib]
+21.0 +16.9 77 +24 +24 комфорт 1014.6 999.4
21 14.05 СЗ 1
{2}
20 км 1/0
[Ci fib]
+17.8 +15.9 89 +19 +19 1015.5 1000.1
00 15.05 СЗ 1-2
{3}
20 км 1/0
[Ci fib]
+15.2 +14.7 97 +16 +16 1014.9 909.3
03 15.05 СЗ 1-3
{4}
600 м туман ?/? +14.9 +14.6 98 +15 +15 1014.8 999.2 +14.9
06 15.05 СЗ 1-3
{3}
50 км 8/4 1000 м
[Sc Ci fib]
+19.0 +15.8 82 +21 +27 комфорт 1015.1 999.7
09 15.05 С 1-3
{5}
50 км 8/3 1000 м
[Cu hum Ci fib]
+23.5 +16.4 64 +27 +37 душно 1014.7 999.6
12 15.05 С 2-4
{6}
45 км 9/8 600 м
[Cb calv Ci fib]
+25.0 +16.0 57 +28 +30 жарко 1014.5 999.4
15 15.05 СВ 2-5
{8}
50 км гроза без осадков {ливн. осадки} 10/8 600 м
[Cb calv As trans]
+19.6 +16.3 81 +22 +23 комфорт 1015.3 1000.0 +25.7 2
18 15.05 штиль 0
{5}
20 км {гроза, ливн. осадки} 9/4 1000 м
[Sc diur, vesp As trans]
+16.6 +14.7 89 +16 +16 1015.7 1000.2
21 15.05 С 2-4
{5}
20 км 10/0
[As op]
+16.9 +12.4 75 +17 +17 1015.3 1000.2
00 16.05 С 2-3
{4}
20 км слаб. дождь 10/0
[As op]
+14.9 +13.4 91 +15 +15 1015.8 1000.2
03 16.05 С 2-4
{6}
45 км {дождь} 10/10 300 м
[Frnb]
+14.7 +13.2 91 +14 +14 1016.2 1000.6 +14.5 0.5
06 16.05 С 2-5
{7}
50 км {дождь} 9/3 1000 м
[Sc Ac trans]
+15.0 +11.4 79 +15 +18 1017.5 1001.9 +14.3
09 16.05 С 3-6
{7}
50 км 9/9 1000 м
[Cu Sc]
+16.7 +9.9 64 +17 +18 1018.7 1003.1
12 16.05 С 3-6
{8}
50 км 1/1 1000 м
[Cu hum]
+18.6 +5.0 41 +19 +27 1019.2 1003.7
15 16.05 СЗ 3-7
{11}
50 км 4/0
[Ci fib]
+17.5 +2.1 36 +18 +19 1019.8 1004.2 +19.1
18 16.05 С 1-2
{7}
20 км 9/0
[Ci fib]
+13.0 +2.3 48 +13 +13 1021.3 1005.5
21 16.05 С 2-4
{6}
20 км ясно +9.8 +1.1 55 +9 +9 1022.8 1006.8
00 17.05 СЗ 1-2
{4}
20 км ясно +5.7 +1.7 75 +5 +5 1023.7 1007.4
03 17.05 СЗ 1-2
{3}
50 км ясно +5.5 +1.8 77 +4 +6 1024.8 1008.4 +4.8
06 17.05 С 2-4
{5}
50 км 8/8 1000 м
[Cu med, cong]
+12.4 0.0 42 +12 +14 1024.6 1008.6
09 17.05 СЗ 3-7
{7}
50 км 1/1 600 м
[Cu hum]
+14.8 -1.2 33 +14 +25 опасность
простуды
1023.3 1007.5
12 17.05 З 2-6
{7}
50 км ясно +16.6 -0.9 30 +17 +27 1021.1 1005.5
15 17.05 З 3-8
{8}
50 км ясно +16.6 -0.9 30 +16 +18 1020.1 1004.5 +17.3
18 17.05 штиль 0
{8}
20 км ясно +10.9 +1.7 53 +11 +11 1019.8 1003.9
21 17.05 З 2-4
{4}
20 км 1/1 1000 м
[Sc]
+9.6 +1.5 57 +8 +8 1018.7 1002.7
00 18.05 З 2-3
{5}
20 км 5/5 1000 м
[Sc]
+9.6 +0.9 55 +8 +8 1017.6 1001.6
03 18.05 З 2-4
{5}
50 км ясно +8.7 +3.4 69 +7 +9 1017.4 1001.4 +8.0
06 18.05 СЗ 4-9
{9}
50 км ясно +14.4 +0.9 40 +13 +20 1017.0 1001.4
09 18.05 СЗ 5-9
{11}
50 км 6/0
[Ci fib]
+16.6 -1.4 29 +16 +23 1016.4 1000.9
12 18.05 СЗ 5-11
{11}
50 км 10/0
[Ci fib]
+17.6 -0.9 28 +17 +21 1015.3 999.8
15 18.05 СЗ 3-8
{11}
50 км 10/0
[Ci fib]
+16.8 -0.9 30 +17 +18 1014.7 999.2 +18.0
18 18.05 З 1-2
{10}
20 км 6/0
[Ac trans]
+10.8 -0.7 45 +11 +11 1014.9 999.0
21 18.05 СЗ 1-3
{11}
20 км 10/10 1000 м
[Sc]
+10.3 +3.8 64 +10 +10 1014.6 998.7
00 19.05 СВ 2-6
{5}
20 км 9/9 1000 м
[Sc]
+8.9 +2.5 64 +7 +7 1014.7 998.7
03 19.05 С 2-3
{5}
50 км 1/1 1000 м
[Sc]
+6.7 +1.2 68 +5 +6 1016.0 999.9 +5.9
06 19.05 С 4-8
{9}
50 км 3/3 600 м
[Cu hum]
+10.2 -1.9 43 +8 +13 1016.2 1000.2
09 19.05 С 4-9
{10}
50 км 8/8 600 м
[Cu hum]
+12.3 0.0 43 +11 +13 1015.9 1000.0
12 19.05 СЗ 4-8
{10}
50 км 8/8 600 м
[Cu hum]
+12.3 -1.4 39 +11 +12 1016.2 1000.3
15 19.05 С 2-5
{8}
50 км 5/4 600 м
[Cu hum Ci fib]
+13.5 -0.2 39 +13 +14 1017.0 1001.3 +15.6
18 19.05 С 1-2
{7}
20 км ясно +9.1 +1.1 57 +9 +9 1018.7 1002.7
21 19.05 штиль 0
{2}
20 км 4/4 1000 м
[Sc]
+5.6 -0.8 63 1019.9 1003.6
00 20.05 штиль 0
{1}
20 км ясно +2.7 +0.6 86 +2 +2 1020.9 1004.5
03 20.05 З 1-2
{2}
50 км ясно +3.0 +0.3 82 +2 +4 1021.9 1005.5 +2.0
06 20.05 С 2-6
{6}
50 км 3/3 600 м
[Cu hum]
+11.5 0.0 45 +11 +17 1021.5 1005.6
09 20.05 С 2-5
{7}
50 км 8/8 600 м
[Cu hum]
+13.8 +0.2 39 +14 +17 1021.1 1005.3
12 20.05 СЗ 3-6
{8}
50 км 8/8 600 м
[Cu hum]
+17.3 +1.3 34 +17 +19 1020.3 1004.7
15 20.05 СЗ 3-7
{8}
50 км 4/3 1000 м
[Cu hum]
+16.8 +0.9 34 +17 +18 1019.3 1003.7 +17.9
18 20.05 штиль 0
{7}
50 км 1/0
[Ci fib]
+11.1 +3.0 57 +11 +11 1019.9 1004.0
21 20.05 штиль 0
{2}
20 км ясно +8.2 +1.9 64 +8 +8 1020.6 1004.5
00 21.05 штиль 0
{1}
20 км ясно +4.7 +1.1 77 +4 +4 1021.4 1005.1
03 21.05 штиль 0
{1}
50 км 1/0
[Ci fib]
+6.5 +2.6 76 +6 +8 1021.7 1005.5 +4.4
06 21.05 З 2-3
{3}
50 км 8/0
[Ci]
+15.3 +1.1 38 +15 +23 1021.6 1005.9
09 21.05 СЗ 2-5
{5}
50 км 10/0
[Ac trans Ci fib]
+18.5 +2.7 35 +19 +29 1020.6 1005.1
12 21.05 З 3-5
{6}
50 км 10/6 600 м
[Sc Ac As]
+17.8 +0.9 32 +18 +19 1019.0 1004.3
15 21.05 З 2-3
{5}
50 км 9/3 1000 м
[Sc Ac trans]
+17.3 +2.7 38 +18 +19 1018.6 1003.0 +19.6

 

Местоположение метеостанции Павлово (Нижегородская область, Россия): широта 55.95 долгота 43.03 высота над уровнем моря 131 м.

В архиве по умолчанию представлена погода в Павлово за последнюю неделю. Архивные данные за месяц целиком и за предыдущие месяцы, начиная с января 2011 года, Вы можете получить, выбрав интересующий диапазон дат из раскрывающегося списка и нажав кнопку "Ввод!".


*Определитесь, кто Вы:
робот инопланетянин человек

Внимание! Время в таблицах - всемирное. Для получения местного времени необходимо прибавить поправку, которая равна 3 ч.

Смотрите также архив погоды в соседних городах и на ближайших метеорологических станциях:

Погода в Нижнем Новгороде аэропорт (Нижегородская область, Россия) (55 км)
Погода в Балахне (Нижегородская область, Россия) (59 км)
Погода в Вязниках (Владимирская область, Россия) (60 км)
Погода в Дальнем Константиново (Нижегородская область, Россия) (68 км)
Погода в Нижнем Новгороде (Нижегородская область, Россия) (70 км)
Погода в Муроме (Владимирская область, Россия) (74 км)
Погода в Арзамасе (Нижегородская область, Россия) (80 км)
Погода в Волжской ГМО (Нижегородская область, Россия) (85 км)
Погода в Выксе (Нижегородская область, Россия) (90 км)
Погода в Коврове (Владимирская область, Россия) (114 км)

Пояснения к столбцам:

Ветер - указаны скорость ветра в м/с - средняя за 10 мин, порывы в срок и между сроками (в фигурных скобках) и направление, откуда дует ветер: С - северный, СВ - северо-восточный, В - восточный, ЮВ - юго-восточный, Ю - южный, ЮЗ - юго-западный, З - западный, СЗ - северо-западный.
Видимость - горизонтальная дальность видимости в метрах или километрах. При видимости от 1 до 10 км при отсутствии осадков обычно наблюдается дымка, при ухудшении видимости до 1 км и менее - туман. В сухую погоду видимость может ухудшаться дымом, пылью или мглою.
Явления - указаны атмосферные явления, наблюдавшиеся в срок или в последний час перед сроком; фигурными скобками обозначены явления, наблюдавшиеся между сроками (за 1-3 часа до срока); квадратными скобками обозначены град или гололедные отложения с указанием их диаметра в мм.
Облачность - указаны через наклонную черту общая и нижняя облачность в баллах и высота нижней границы облаков в метрах; квадратными скобками обозначены формы облаков: Ci - перистые, Cs - перисто-слоистые, Cc - перисто-кучевые, Ac - высококучевые, As - высокослоистые, Sc - слоисто-кучевые, Ns - слоисто-дождевые, Cu - кучевые, Cb - кучево-дождевые. Подробнее классификацию облаков см. в Атласе облаков (PDF).
T - Температура воздуха - температура, измеренная на высоте 2 м над землей.
Td - Температура точки росы - температура, при понижении до которой содержащийся в воздухе водяной пар достигнет насыщения.
f - Относительная влажность воздуха - влажноcть воздуха, измеренная на высоте 2 м над землей.
Te - Эффективная температура - температура, которую ощущает одетый по сезону человек в тени. Характеристика душности погоды. При расчете учитывается влияние влажности воздуха и скорости ветра на теплоощущения человека.
Tes - Эффективная температура на солнце - температура, которую ощущает человек, с поправкой на солнечный нагрев. Характеристика знойности погоды. Зависит от высоты солнца над горизонтом, облачности и скорости ветра. Ночью, в пасмурную погоду, а также при ветре 12 м/с и более поправка равна нулю.
P - Атмосферное давление - приведенное к уровню моря атмосферное давление.
Po - Атмосферное давление - измеренное на уровне метеостанции атмосферное давление.
Tmin - Минимальная температура - минимум температуры воздуха на высоте 2 м над землей.
Tmax - Максимальная температура - максимум температуры воздуха на высоте 2 м над землей.
R - Количество осадков - Количество выпавших осадков за период времени, мм. При наведении курсора мыши на число - период времени, за который выпало указанное количество осадков.
R24 - Количество осадков - Количество выпавших осадков за 24 часа, мм.
S - Снежный покров - Высота снежного покрова, см. При наведении курсора мыши на число - состояние снежного покрова и степень покрытия местности в баллах.